This demonstration page uses our WeatherBlox Daily Observations layout. Learn more.

Left ArrowRight Arrow

44.8408, -93.29828

Hourly Observations for July 15, 2019

Temp ( °F °C ) Dew Point ( °F °C ) Humidity (%) Winds ( mph kmh ) Pressure ( in mb ) Visibility ( mi km ) Precip ( " mm )
12:53 am 00:53 Mostly Clear 72 22.2 68 20 87 87 SE 9 15 29.94 1014 10 16 0.00 0.00
1:53 am 01:53 Cloudy 72 22.2 67 19.4 84 84 SSE 5 7 29.92 1013 10 16 0.00 0.00
2:53 am 02:53 Mostly Cloudy 72 22.2 67 19.4 84 84 SSE 5 7 29.90 1013 10 16 0.00 0.00
3:53 am 03:53 Mostly Cloudy 72 22.2 68 20 87 87 SE 7 11 29.89 1012 10 16 0.00 0.00
4:53 am 04:53 Cloudy 73 22.8 69 20.6 87 87 SE 6 9 29.89 1012 10 16 0.00 0.00
5:53 am 05:53 Cloudy 74 23.3 69 20.6 85 85 SE 8 13 29.87 1012 10 16 0.00 0.00
6:53 am 06:53 Cloudy 77 25 69 20.6 77 77 S 6 9 29.88 1012 10 16 0.00 0.00
7:53 am 07:53 Mostly Cloudy 79 26.1 69 20.6 72 72 S 8 13 29.88 1012 10 16 0.00 0.00
8:53 am 08:53 Mostly Cloudy 82 27.8 70 21.1 67 67 SSW 9 15 29.86 1011 10 16 0.00 0.00
9:53 am 09:53 Mostly Cloudy 82 27.8 70 21.1 67 67 SW 12 19 29.85 1011 10 16 0.00 0.00
10:53 am 10:53 Mostly Cloudy 85 29.4 72 22.2 65 65 SSW 12 19 29.84 1011 10 16 0.00 0.00
11:53 am 11:53 Partly Cloudy 88 31.1 73 22.8 61 61 SSW 13 20 29.83 1010 10 16 0.00 0.00
12:53 pm 12:53 Partly Cloudy 91 32.8 73 22.8 56 56 SW 16 26 29.81 1010 10 16 0.00 0.00
1:53 pm 13:53 Partly Cloudy 90 32.2 74 23.3 59 59 SSW 14 22 29.80 1009 10 16 0.00 0.00
2:53 pm 14:53 Mostly Cloudy 91 32.8 74 23.3 57 57 SSW 16 26 29.79 1009 10 16 0.00 0.00
3:53 pm 15:53 Mostly Cloudy 91 32.8 73 22.8 56 56 SSW 16 26 29.77 1008 10 16 0.00 0.00
4:53 pm 16:53 Mostly Cloudy 90 32.2 73 22.8 58 58 SW 17 28 29.75 1008 10 16 0.00 0.00
5:43 pm 17:43 Mostly Cloudy with Thunderstorms 89 31.7 73 22.8 59 59 SSW 13 20 29.71 1006 10 16 0.00 0.00
5:53 pm 17:53 Cloudy with Thunderstorms 89 31.7 74 23.3 61 61 SW 10 17 29.76 1008 10 16 0.00 0.00
6:07 pm 18:07 Cloudy with Nearby Thunderstorms 76 24.4 67 19.4 74 74 NNW 24 39 29.80 1009 10 16 0.00 0.00
6:11 pm 18:11 Cloudy with Nearby Thunderstorms 74 23.3 68 20 82 82 N 18 30 29.80 1009 1 1 0.00 0.00
6:17 pm 18:17 Cloudy with Strong Thunderstorms 72 22.2 68 20 87 87 NNW 14 22 29.77 1008 4 6 0.27 6.86
6:23 pm 18:23 Cloudy with Strong Thunderstorms 71 21.7 68 20 90 90 NNW 13 20 29.80 1009 1 2 0.33 8.38
6:28 pm 18:28 Cloudy with Strong Thunderstorms 72 22.2 69 20.6 91 91 NW 12 19 29.80 1009 2 3 0.48 12.19
6:32 pm 18:32 Cloudy with Thunderstorms 72 22.2 70 21.1 94 94 NNW 14 22 29.77 1008 3 5 0.52 13.21
6:36 pm 18:36 Cloudy with Thunderstorms 73 22.8 70 21.1 90 90 VRB 6 9 29.80 1009 2 2 0.53 13.46
6:39 pm 18:39 Cloudy with Strong Thunderstorms 73 22.8 71 21.7 94 94 VRB 7 11 29.80 1009 1 2 0.57 14.48
6:41 pm 18:41 Cloudy with Strong Thunderstorms 73 22.8 71 21.7 94 94 VRB 3 6 29.77 1008 1 1 0.63 16.00
6:46 pm 18:46 Cloudy with Strong Thunderstorms 73 22.8 70 21.1 90 90 WSW 6 9 29.80 1009 4 6 0.88 22.35
6:53 pm 18:53 Cloudy with Strong Thunderstorms 73 22.8 70 21.1 90 90 W 15 24 29.86 1011 2 3 0.91 23.11
6:57 pm 18:57 Cloudy with Strong Thunderstorms 73 22.8 70 21.1 90 90 WNW 14 22 29.85 1011 1 2 0.06 1.52
7:00 pm 19:00 Cloudy with Strong Thunderstorms 73 22.8 70 21.1 90 90 NNW 12 19 29.83 1010 1 1 0.13 3.30
7:08 pm 19:08 Cloudy with Strong Thunderstorms 73 22.8 70 21.1 90 90 NNW 13 20 29.85 1011 1 2 0.30 7.62
7:10 pm 19:10 Cloudy with Strong Thunderstorms 73 22.8 71 21.7 94 94 N 9 15 29.85 1011 2 2 0.33 8.38
7:34 pm 19:34 Cloudy with Strong Thunderstorms 73 22.8 70 21.1 90 90 S 13 20 29.77 1008 2 3 0.73 18.54
7:39 pm 19:39 Cloudy with Nearby Thunderstorms 73 22.8 70 21.1 90 90 SSW 12 19 29.77 1008 6 10 0.79 20.07
7:53 pm 19:53 Mostly Cloudy with Thunderstorms 74 23.3 69 20.6 85 85 SSW 10 17 29.78 1009 9 14 0.83 21.08
8:12 pm 20:12 Mostly Cloudy with Nearby Thunderstorms 74 23.3 69 20.6 85 85 S 13 20 29.74 1007 9 14 0.01 0.25
8:53 pm 20:53 Mostly Cloudy 74 23.3 68 20 82 82 SSW 9 15 29.78 1009 10 16 0.01 0.25
9:53 pm 21:53 Mostly Cloudy 74 23.3 67 19.4 79 79 SSW 7 11 29.81 1010 10 16 0.00 0.00
10:53 pm 22:53 Mostly Cloudy 74 23.3 66 18.9 76 76 Calm 29.81 1010 10 16 0.00 0.00
11:53 pm 23:53 Cloudy 72 22.2 67 19.4 84 84 SSE 7 11 29.82 1010 10 16 0.00 0.00

Powered by AerisWeather